Location: Home
(42.5358°N, 72.7383°W)
Time: 03:05:21
(UTC-05:00)

BlueWalker 3 - Visible Passes

Search period start: 06 December 2022 00:00
Search period end: 16 December 2022 00:00
Orbit: 501 x 518 km, 53.2° (Epoch: 05 December)

Date Brightness Start Highest point End Pass type
(mag) Time Alt. Az. Time Alt. Az. Time Alt. Az.
06 Dec 3.1 17:47:22 10° NW 17:50:42 26° NNE 17:51:01 25° NNE visible
06 Dec 5.2 19:25:48 10° NW 19:25:51 10° NW 19:25:51 10° NW visible
07 Dec 3.1 17:28:57 10° NW 17:32:19 27° NNE 17:33:39 22° NE visible
07 Dec 4.5 19:07:24 10° WNW 19:08:29 18° WNW 19:08:29 18° WNW visible
08 Dec 3.0 17:10:32 10° NW 17:13:57 28° NNE 17:16:25 15° ENE visible
08 Dec 3.6 18:49:00 10° WNW 18:51:16 32° WNW 18:51:16 32° WNW visible
09 Dec 3.0 16:52:06 10° NW 16:55:33 29° NNE 16:58:58 10° E visible
09 Dec 2.4 18:30:36 10° WNW 18:34:14 60° WSW 18:34:14 60° WSW visible
10 Dec 2.5 18:12:11 10° WNW 18:16:01 57° SW 18:17:28 33° SSE visible
11 Dec 2.7 17:53:47 10° WNW 17:57:35 53° SW 18:01:04 12° SSE visible
12 Dec 2.9 17:35:22 10° WNW 17:39:09 49° SW 17:42:53 10° SSE visible
13 Dec 3.1 17:16:57 10° WNW 17:20:42 46° SW 17:24:25 10° SSE visible
14 Dec 3.3 16:58:32 10° WNW 17:02:15 43° SW 17:05:56 10° SSE visible
